FW1189 Weather Reports


time (UTC)temp
F
wind
direction
speed
knots
gust
knots
rain 1hr
in
rain 24hr
in
rain mn
in
humidity
%
barometer
mb
20260507232708 42 337 1.7 3.5 0.00 0.00 0.00 82 1013.2
20260507232407 42 338 1.7 3.5 0.00 0.00 0.00 82 1013.2
20260507232107 42 338 1.7 3.5 0.00 0.00 0.00 82 1013.4
20260507231829 42 338 1.7 3.5 0.00 0.00 0.00 82 1013.4
20260507231507 42 337 1.7 3.5 0.00 0.00 0.00 82 1013.5
20260507231207 42 337 0.9 3.5 0.00 0.00 0.00 83 1013.4
20260507230907 42 337 0.9 3.5 0.00 0.00 0.00 82 1013.5
20260507230607 42 337 0.9 3.5 0.00 0.00 0.00 83 1013.5
20260507230307 42 337 1.7 3.5 0.00 0.00 0.00 82 1013.5
20260507230029 43 337 1.7 3.5 0.00 0.00 0.00 82 1013.5
20260507225707 43 342 1.7 3.5 0.00 0.00 0.00 82 1013.4
20260507225407 43 340 1.7 3.5 0.00 0.00 0.00 81 1013.6
20260507225107 43 334 1.7 3.5 0.00 0.00 0.00 82 1013.1
20260507224807 43 327 1.7 3.5 0.00 0.00 0.00 81 1013.4
20260507224508 43 334 1.7 3.5 0.00 0.00 0.00 81 1013.3
20260507224208 43 20 1.7 6.1 0.00 0.00 0.00 80 1013.3
20260507223929 42 55 1.7 6.1 0.00 0.00 0.00 81 1013.3
20260507223608 43 77 1.7 6.1 0.00 0.00 0.00 80 1013.4
20260507223307 43 78 1.7 6.1 0.00 0.00 0.00 79 1013.3
20260507223007 43 77 1.7 5.2 0.00 0.00 0.00 79 1013.3
20260507222708 43 70 0.9 5.2 0.00 0.00 0.00 79 1013.2
20260507222407 42 52 0.0 3.5 0.00 0.00 0.00 79 1013.3
20260507222107 43 49 0.9 5.2 0.00 0.00 0.00 80 1013.3
20260507221829 43 63 1.7 9.6 0.00 0.00 0.00 80 1013.5
20260507221507 43 72 2.6 9.6 0.00 0.00 0.00 79 1013.3
20260507221228 43 74 2.6 9.6 0.00 0.00 0.00 79 1013.2
20260507220907 43 83 2.6 9.6 0.00 0.00 0.00 79 1013.4
20260507220607 43 82 2.6 9.6 0.00 0.00 0.00 79 1013.1
20260507220307 43 81 3.5 9.6 0.00 0.00 0.00 79 1013.4
20260507220022 43 81 4.3 9.6 0.00 0.00 0.00 79 1013.3
20260507215707 43 79 4.3 9.6 0.00 0.00 0.00 78 1013.3
20260507215407 43 75 4.3 12.2 0.00 0.00 0.00 82 1013.0
20260507215107 43 72 3.5 12.2 0.00 0.00 0.00 82 1012.9
20260507214807 43 71 4.3 12.2 0.00 0.00 0.00 82 1013.2
20260507214508 43 69 4.3 9.6 0.00 0.00 0.00 82 1013.1
20260507214228 43 76 4.3 9.6 0.00 0.00 0.00 82 1013.3
20260507213908 43 81 3.5 9.6 0.00 0.00 0.00 82 1013.1
20260507213629 42 86 2.6 9.6 0.00 0.00 0.00 82 1013.2
20260507213308 42 93 1.7 7.0 0.00 0.00 0.00 84 1013.1
20260507213007 41 98 0.0 1.7 0.00 0.00 0.00 86 1013.1
20260507212707 41 104 0.0 1.7 0.00 0.00 0.00 86 1013.1
20260507212407 41 0 0.0 1.7 0.00 0.00 0.00 85 1013.1
20260507212107 42 340 0.0 3.5 0.00 0.00 0.00 83 1013.2
20260507211807 42 343 0.9 3.5 0.00 0.00 0.00 82 1013.1
20260507211529 42 351 0.9 3.5 0.00 0.00 0.00 82 1013.0
20260507211208 42 39 0.9 3.5 0.00 0.00 0.00 82 1013.1
20260507210907 42 86 1.7 6.1 0.00 0.00 0.00 83 1013.1
20260507210609 43 94 2.6 6.1 0.00 0.00 0.00 82 1013.0
20260507210307 43 85 2.6 7.0 0.00 0.00 0.00 81 1013.0
20260507210007 43 78 1.7 7.0 0.00 0.00 0.00 80 1013.1
20260507205707 42 45 0.9 7.0 0.00 0.00 0.00 79 1013.0
20260507205407 42 7 0.9 7.0 0.00 0.00 0.00 81 1013.1
20260507205107 42 355 0.9 5.2 0.00 0.00 0.00 84 1013.0
20260507204829 43 349 1.7 5.2 0.00 0.00 0.00 83 1012.9
20260507204508 43 353 1.7 5.2 0.00 0.00 0.00 83 1012.9
20260507204208 42 352 1.7 5.2 0.00 0.00 0.00 84 1012.9
20260507203907 43 360 1.7 5.2 0.00 0.00 0.00 84 1012.8
20260507203628 43 359 1.7 5.2 0.00 0.00 0.00 84 1012.8
20260507203307 43 28 0.9 3.5 0.00 0.00 0.00 84 1012.8
20260507203007 43 51 0.9 3.5 0.00 0.00 0.00 83 1013.1
20260507202729 43 62 0.9 3.5 0.00 0.00 0.00 82 1013.0
20260507202428 43 76 0.9 5.2 0.00 0.00 0.00 81 1013.1
20260507202107 44 81 1.7 7.8 0.00 0.00 0.00 81 1013.2
20260507201829 44 85 2.6 9.6 0.00 0.00 0.00 81 1013.0
20260507201528 44 86 4.3 9.6 0.00 0.00 0.00 80 1013.2
20260507201207 44 86 5.2 9.6 0.00 0.00 0.00 79 1013.0
20260507200907 44 93 4.3 11.3 0.00 0.00 0.00 79 1013.0
20260507200608 43 95 4.3 12.2 0.00 0.00 0.00 80 1012.9
20260507200308 44 102 4.3 12.2 0.00 0.00 0.00 80 1012.9
20260507200007 44 100 4.3 12.2 0.00 0.00 0.00 80 1013.0
20260507195707 43 102 2.6 9.6 0.00 0.00 0.00 81 1013.1
20260507195429 43 100 0.9 7.8 0.00 0.00 0.00 81 1012.9
20260507195128 43 94 0.9 7.8 0.00 0.00 0.00 82 1012.9
20260507194807 43 79 0.9 7.8 0.00 0.00 0.00 82 1012.6
20260507194508 42 59 0.9 7.8 0.00 0.00 0.00 84 1012.7
20260507194207 42 359 0.0 3.5 0.00 0.00 0.00 85 1012.8
20260507193908 42 348 0.0 1.7 0.00 0.00 0.00 85 1012.5
20260507193629 42 2 0.0 1.7 0.00 0.00 0.00 85 1012.7
20260507193307 43 329 0.0 1.7 0.00 0.00 0.00 84 1012.4
20260507193007 43 332 0.9 1.7 0.00 0.00 0.00 83 1012.5
20260507192729 43 329 0.9 1.7 0.00 0.00 0.00 83 1012.2
20260507192407 44 328 0.9 1.7 0.00 0.00 0.00 83 1012.2
20260507192128 44 327 0.9 1.7 0.00 0.00 0.00 82 1012.2
20260507191829 43 327 0.9 1.7 0.00 0.00 0.00 83 1012.1
20260507191507 43 335 0.0 1.7 0.00 0.00 0.00 83 1012.2
20260507191208 43 95 0.0 1.7 0.00 0.00 0.00 82 1012.1
20260507190907 44 130 0.9 5.2 0.00 0.00 0.00 80 1012.3
20260507190607 44 119 1.7 5.2 0.00 0.00 0.00 80 1012.0
20260507190307 44 115 2.6 7.8 0.00 0.00 0.00 79 1012.1
20260507190028 44 108 3.5 7.8 0.00 0.00 0.00 79 1012.1
20260507185707 44 102 4.3 7.8 0.00 0.00 0.00 78 1012.1
20260507185428 44 96 3.5 7.8 0.00 0.00 0.00 77 1012.0
20260507185129 45 93 2.6 7.0 0.00 0.00 0.00 77 1011.9
20260507184808 44 90 1.7 7.0 0.00 0.00 0.00 77 1012.2
20260507184507 44 26 0.0 3.5 0.00 0.00 0.00 80 1011.8
20260507184207 44 56 1.7 7.0 0.00 0.00 0.00 79 1011.9
20260507183907 44 81 2.6 9.6 0.00 0.00 0.00 78 1011.9
20260507183607 45 89 2.6 9.6 0.00 0.00 0.00 79 1012.1
20260507183308 45 91 2.6 14.8 0.00 0.00 0.00 77 1012.0
20260507183007 45 89 4.3 14.8 0.00 0.00 0.00 77 1011.9
20260507182707 45 82 4.3 14.8 0.00 0.00 0.00 78 1012.1
20260507182408 45 81 4.3 14.8 0.00 0.00 0.00 78 1011.9
20260507182128 45 72 1.7 12.2 0.00 0.00 0.00 77 1011.9
20260507181808 45 84 1.7 11.3 0.00 0.00 0.00 80 1011.9
20260507181507 45 92 3.5 12.2 0.00 0.00 0.00 80 1011.6
20260507181207 45 91 3.5 12.2 0.00 0.00 0.00 78 1011.7
20260507180907 45 90 2.6 12.2 0.00 0.00 0.00 77 1011.6
20260507180607 45 84 0.9 7.8 0.00 0.00 0.00 78 1011.7
20260507180307 45 92 1.7 7.8 0.00 0.00 0.00 80 1011.6
20260507180008 45 91 1.7 7.8 0.00 0.00 0.00 79 1011.6
20260507175707 46 86 4.3 13.0 0.00 0.00 0.00 78 1011.6
20260507175428 46 84 7.0 14.8 0.00 0.00 0.00 77 1011.7
20260507175108 46 83 10.4 18.2 0.00 0.00 0.00 78 1011.5
20260507174807 46 85 11.3 18.2 0.00 0.00 0.00 76 1011.5
20260507174508 46 88 11.3 18.2 0.00 0.00 0.00 78 1011.4
20260507174208 46 90 12.2 20.0 0.00 0.00 0.00 78 1011.4
20260507173908 47 90 13.9 23.5 0.00 0.00 0.00 77 1011.3
20260507173607 47 90 13.0 23.5 0.00 0.00 0.00 76 1011.5
20260507173328 47 89 12.2 23.5 0.00 0.00 0.00 75 1011.3
20260507173028 47 90 10.4 23.5 0.00 0.00 0.00 76 1011.3
20260507172707 48 86 8.7 18.2 0.00 0.00 0.00 75 1011.2
20260507172428 48 88 8.7 18.2 0.00 0.00 0.00 71 1011.2
20260507172108 48 90 10.4 18.2 0.00 0.00 0.00 73 1011.3
20260507171807 48 95 10.4 20.0 0.00 0.00 0.00 71 1011.2
20260507171507 48 93 10.4 20.0 0.00 0.00 0.00 72 1011.2
20260507171207 49 92 9.6 20.0 0.00 0.00 0.00 72 1011.2
20260507170907 49 87 9.6 15.6 0.00 0.00 0.00 70 1011.2
20260507170607 49 86 9.6 17.4 0.00 0.00 0.00 70 1011.3
20260507170328 49 86 9.6 17.4 0.00 0.00 0.00 69 1011.0
20260507170028 49 91 8.7 17.4 0.00 0.00 0.00 69 1011.0
20260507165707 49 92 8.7 18.2 0.00 0.00 0.00 71 1011.0
20260507165407 50 94 8.7 18.2 0.00 0.00 0.00 70 1011.0
20260507165108 49 96 8.7 18.2 0.00 0.00 0.00 72 1011.1
20260507164828 50 104 7.0 15.6 0.00 0.00 0.00 71 1011.0
20260507164507 50 125 4.3 12.2 0.00 0.00 0.00 70 1011.1
20260507164207 53 140 3.5 11.3 0.00 0.00 0.00 66 1011.0
20260507163907 53 172 2.6 9.6 0.00 0.00 0.00 65 1011.3
20260507163607 53 178 2.6 7.0 0.00 0.00 0.00 68 1011.1
20260507163307 53 182 2.6 7.0 0.00 0.00 0.00 66 1011.2
20260507163007 53 181 1.7 7.0 0.00 0.00 0.00 65 1011.3
20260507162707 54 172 0.9 3.5 0.00 0.00 0.00 64 1011.1
20260507162407 54 139 0.9 6.1 0.00 0.00 0.00 64 1011.1
20260507162107 53 133 1.7 7.0 0.00 0.00 0.00 65 1011.2
20260507161807 52 116 2.6 11.3 0.00 0.00 0.00 69 1011.0
20260507161528 52 107 3.5 11.3 0.00 0.00 0.00 70 1011.1
20260507161207 51 103 5.2 14.8 0.00 0.00 0.00 69 1011.1
20260507160929 51 105 6.1 14.8 0.00 0.00 0.00 72 1011.0
20260507160628 50 113 6.1 14.8 0.00 0.00 0.00 72 1011.1
20260507160328 51 120 6.1 13.9 0.00 0.00 0.00 69 1011.0
20260507160007 51 118 6.1 13.0 0.00 0.00 0.00 71 1011.1
20260507155706 50 122 6.1 13.0 0.00 0.00 0.00 72 1010.8
20260507155407 50 124 7.0 13.0 0.00 0.00 0.00 72 1010.9
20260507155106 51 132 6.1 12.2 0.00 0.00 0.00 71 1010.9
20260507154808 49 124 5.2 12.2 0.00 0.00 0.00 71 1010.9
20260507154507 49 116 6.1 13.0 0.00 0.00 0.00 70 1011.0
20260507154207 49 106 6.1 13.0 0.00 0.00 0.00 73 1010.7
20260507153907 49 112 7.0 15.6 0.00 0.00 0.00 72 1011.1
20260507153607 50 104 7.0 15.6 0.00 0.00 0.00 72 1010.9
20260507153328 50 106 7.0 15.6 0.00 0.00 0.00 70 1010.8
20260507153007 50 108 7.8 18.2 0.00 0.00 0.00 71 1011.1
20260507152707 50 108 8.7 18.2 0.00 0.00 0.00 70 1010.9
20260507152407 50 112 8.7 18.2 0.00 0.00 0.00 69 1010.9
20260507152107 51 107 7.8 18.2 0.00 0.00 0.00 68 1011.2
20260507151828 50 117 5.2 13.9 0.00 0.00 0.00 70 1010.9
20260507151507 49 116 6.1 14.8 0.00 0.00 0.00 70 1010.9
20260507151228 49 112 6.1 19.1 0.00 0.00 0.00 70 1010.9
20260507150908 49 115 6.1 19.1 0.00 0.00 0.00 72 1010.8
20260507150607 49 109 6.1 19.1 0.00 0.00 0.00 71 1010.7
20260507150307 51 115 5.2 18.2 0.00 0.00 0.00 70 1010.7
20260507150007 50 113 6.1 18.2 0.00 0.00 0.00 69 1010.9
20260507145707 49 118 6.1 13.0 0.00 0.00 0.00 71 1011.0
20260507145407 49 117 5.2 13.0 0.00 0.00 0.00 72 1010.7
20260507145108 50 135 4.3 11.3 0.00 0.00 0.00 69 1011.0
20260507144807 52 132 4.3 12.2 0.00 0.00 0.00 67 1010.9
20260507144507 52 121 5.2 15.6 0.00 0.00 0.00 66 1010.9
20260507144208 51 105 7.0 18.2 0.00 0.00 0.00 68 1010.8
20260507143907 51 101 7.8 18.2 0.00 0.00 0.00 70 1011.0
20260507143607 51 109 7.0 18.2 0.00 0.00 0.00 70 1011.0
20260507143307 51 115 5.2 12.2 0.00 0.00 0.00 68 1010.9
20260507143007 51 120 5.2 12.2 0.00 0.00 0.00 67 1011.1
20260507142707 51 117 6.1 13.9 0.00 0.00 0.00 67 1011.0
20260507142428 50 108 6.1 13.9 0.00 0.00 0.00 68 1010.9
20260507142107 51 110 5.2 13.9 0.00 0.00 0.00 71 1011.0
20260507141807 51 116 5.2 13.9 0.00 0.00 0.00 63 1011.0
20260507141507 50 124 4.3 11.3 0.00 0.00 0.00 72 1010.7
20260507141207 50 131 4.3 11.3 0.00 0.00 0.00 68 1011.0
20260507140928 51 137 4.3 11.3 0.00 0.00 0.00 66 1011.0
20260507140607 52 135 3.5 9.6 0.00 0.00 0.00 65 1010.9
20260507140307 52 144 3.5 13.0 0.00 0.00 0.00 65 1011.0
20260507140007 52 136 4.3 13.0 0.00 0.00 0.00 65 1010.8
20260507135707 53 135 4.3 13.0 0.00 0.00 0.00 62 1010.9
20260507135407 53 125 4.3 9.6 0.00 0.00 0.00 64 1010.9
20260507135107 53 117 4.3 9.6 0.00 0.00 0.00 62 1010.9
20260507134807 53 127 5.2 12.2 0.00 0.00 0.00 65 1011.0
20260507134508 53 123 5.2 12.2 0.00 0.00 0.00 66 1010.9
20260507134207 53 118 6.1 13.0 0.00 0.00 0.00 62 1011.0
20260507133907 51 115 6.1 13.0 0.00 0.00 0.00 63 1011.1
20260507133607 51 110 6.1 13.0 0.00 0.00 0.00 64 1011.0
20260507133307 51 125 5.2 11.3 0.00 0.00 0.00 64 1011.0
20260507133007 51 143 6.1 11.3 0.00 0.00 0.00 62 1011.1
20260507132707 54 147 6.1 11.3 0.00 0.00 0.00 62 1011.1
20260507132406 53 138 6.1 12.2 0.00 0.00 0.00 59 1010.9
20260507132106 53 127 5.2 12.2 0.00 0.00 0.00 62 1011.1
20260507131807 52 144 4.3 12.2 0.00 0.00 0.00 61 1011.0
20260507131507 52 149 4.3 12.2 0.00 0.00 0.00 61 1011.1
20260507131207 50 129 4.3 12.2 0.00 0.00 0.00 61 1011.1
20260507130907 52 127 4.3 12.2 0.00 0.00 0.00 61 1010.9
20260507130607 53 110 4.3 13.0 0.00 0.00 0.00 59 1011.1
20260507130307 54 107 6.1 18.2 0.00 0.00 0.00 58 1011.3
20260507130007 53 103 7.0 18.2 0.00 0.00 0.00 61 1011.2
20260507125707 52 106 7.8 18.2 0.00 0.00 0.00 61 1011.0
20260507125407 52 107 7.0 17.4 0.00 0.00 0.00 67 1011.2
20260507125107 52 120 6.1 14.8 0.00 0.00 0.00 62 1011.1
20260507124807 52 117 5.2 13.0 0.00 0.00 0.00 61 1010.9
20260507124507 53 123 5.2 17.4 0.00 0.00 0.00 63 1011.0
20260507124207 53 122 5.2 17.4 0.00 0.00 0.00 58 1011.0
20260507123906 52 124 6.1 17.4 0.00 0.00 0.00 58 1011.0
20260507123607 53 122 5.2 17.4 0.00 0.00 0.00 60 1011.2
20260507123307 54 126 5.2 12.2 0.00 0.00 0.00 58 1011.1
20260507123007 53 112 6.1 14.8 0.00 0.00 0.00 57 1011.1
20260507122708 52 126 6.1 14.8 0.00 0.00 0.00 62 1011.3
20260507122428 52 129 5.2 14.8 0.00 0.00 0.00 60 1011.1
20260507122128 53 147 4.3 14.8 0.00 0.00 0.00 57 1011.0
20260507121806 54 161 4.3 9.6 0.00 0.00 0.00 53 1011.2
20260507121507 54 167 3.5 9.6 0.00 0.00 0.00 54 1011.2
20260507121206 53 151 4.3 13.0 0.00 0.00 0.00 55 1011.0
20260507120906 53 136 5.2 13.9 0.00 0.00 0.00 55 1011.4
20260507120607 51 133 6.1 14.8 0.00 0.00 0.00 59 1011.1
20260507120306 51 139 5.2 14.8 0.00 0.00 0.00 56 1011.2
20260507120028 52 134 5.2 14.8 0.00 0.00 0.00 59 1011.0
20260507115707 53 121 7.0 14.8 0.00 0.00 0.00 55 1011.2
20260507115407 52 107 7.0 14.8 0.00 0.00 0.00 56 1011.1
20260507115107 51 109 7.0 14.8 0.00 0.00 0.00 58 1011.0
20260507114806 51 113 6.1 13.9 0.00 0.00 0.00 61 1010.9
20260507114506 52 115 6.1 13.0 0.00 0.00 0.00 56 1011.2
20260507114207 52 111 6.1 13.9 0.00 0.00 0.00 57 1011.1
20260507113906 51 109 6.1 13.9 0.00 0.00 0.00 55 1011.1
20260507113606 51 115 6.1 13.9 0.00 0.00 0.00 57 1011.1
20260507113328 51 120 6.1 13.9 0.00 0.00 0.00 60 1011.2
20260507113007 51 127 6.1 13.0 0.00 0.01 0.00 58 1011.2
20260507112727 51 117 7.0 13.0 0.00 0.01 0.00 57 1011.4
20260507112406 51 117 7.0 13.0 0.00 0.01 0.00 59 1011.2
20260507112107 51 109 7.0 13.0 0.00 0.01 0.00 58 1011.4
20260507111807 51 113 6.1 12.2 0.00 0.02 0.00 56 1011.4
20260507111528 51 117 5.2 13.0 0.00 0.02 0.00 57 1011.3
20260507111207 51 117 6.1 13.0 0.00 0.02 0.00 53 1011.3
20260507110906 52 122 5.2 13.0 0.00 0.02 0.00 57 1011.4
20260507110607 52 115 6.1 13.0 0.00 0.02 0.00 56 1011.1
20260507110307 51 116 5.2 12.2 0.00 0.02 0.00 61 1011.2
20260507110007 52 122 5.2 15.6 0.00 0.02 0.00 58 1011.2
20260507105707 52 136 4.3 15.6 0.00 0.04 0.00 59 1011.1
20260507105407 51 132 4.3 15.6 0.00 0.05 0.00 61 1011.2
20260507105128 52 129 4.3 15.6 0.00 0.06 0.00 59 1011.2
20260507104807 52 122 4.3 13.9 0.00 0.07 0.00 60 1011.2
20260507104506 51 126 4.3 13.9 0.00 0.08 0.00 63 1011.2
20260507104206 51 129 3.5 13.9 0.00 0.09 0.00 54 1011.3
20260507103907 53 143 3.5 7.8 0.00 0.09 0.00 49 1011.3
20260507103607 52 148 3.5 9.6 0.00 0.09 0.00 55 1011.2
20260507103328 52 156 3.5 9.6 0.00 0.09 0.00 59 1011.2
20260507103007 51 147 3.5 9.6 0.00 0.09 0.00 59 1011.1
20260507102706 52 150 3.5 9.6 0.00 0.09 0.00 57 1011.4
20260507102407 52 143 3.5 7.8 0.00 0.09 0.00 46 1011.5
20260507102106 52 142 3.5 7.8 0.00 0.09 0.00 48 1011.6
20260507101807 52 136 2.6 7.8 0.00 0.09 0.00 54 1011.5
20260507101528 52 135 2.6 6.1 0.00 0.09 0.00 50 1011.5
20260507101206 52 138 2.6 6.1 0.00 0.09 0.00 55 1011.3
20260507100927 52 139 2.6 6.1 0.00 0.09 0.00 56 1011.5
20260507100607 51 124 2.6 6.1 0.00 0.09 0.00 54 1011.4
20260507100306 51 118 2.6 6.1 0.00 0.09 0.00 54 1011.4
20260507100007 50 116 3.5 6.1 0.00 0.09 0.00 53 1011.4
20260507095707 51 129 2.6 6.1 0.00 0.09 0.00 53 1011.5
20260507095427 51 136 2.6 6.1 0.00 0.09 0.00 55 1011.3
20260507095106 51 136 3.5 6.1 0.00 0.09 0.00 52 1011.3
20260507094806 51 133 2.6 6.1 0.00 0.09 0.00 55 1011.3
20260507094507 51 139 2.6 6.1 0.00 0.09 0.00 61 1011.3
20260507094208 52 153 1.7 5.2 0.00 0.09 0.00 52 1011.3
20260507093907 52 153 1.7 5.2 0.00 0.09 0.00 52 1011.2
20260507093607 52 150 1.7 5.2 0.00 0.09 0.00 48 1011.5
20260507093328 52 159 1.7 5.2 0.00 0.09 0.00 53 1011.2
20260507093007 51 165 2.6 5.2 0.00 0.11 0.00 56 1011.2
20260507092707 51 165 2.6 5.2 0.00 0.11 0.00 52 1011.4
20260507092408 51 158 1.7 5.2 0.00 0.11 0.00 47 1011.2
20260507092107 52 148 1.7 5.2 0.00 0.11 0.00 47 1011.2
20260507091807 51 148 1.7 5.2 0.00 0.11 0.00 55 1011.3
20260507091506 51 136 1.7 5.2 0.00 0.11 0.00 52 1011.2
20260507091206 51 127 2.6 5.2 0.00 0.12 0.00 46 1011.3
20260507090907 50 120 2.6 5.2 0.00 0.12 0.00 48 1011.3
20260507090607 50 119 2.6 5.2 0.00 0.12 0.00 50 1011.3
20260507090328 51 120 2.6 5.2 0.00 0.12 0.00 55 1011.4
20260507090028 51 134 1.7 3.5 0.00 0.12 0.00 52 1011.3
20260507085707 50 137 1.7 3.5 0.00 0.12 0.00 54 1011.2
20260507085427 50 136 1.7 3.5 0.00 0.13 0.00 50 1011.2
20260507085106 50 136 1.7 3.5 0.00 0.13 0.00 53 1011.1
20260507084806 50 129 1.7 3.5 0.00 0.13 0.00 56 1010.9
20260507084506 50 129 1.7 3.5 0.00 0.13 0.00 55 1011.1
20260507084206 50 124 1.7 3.5 0.00 0.13 0.00 53 1011.0
20260507083907 50 126 1.7 3.5 0.00 0.13 0.00 56 1011.2
20260507083606 50 131 0.9 3.5 0.00 0.13 0.00 53 1011.0
20260507083306 50 137 0.9 3.5 0.00 0.13 0.00 55 1011.0
20260507083007 50 135 0.9 3.5 0.00 0.13 0.00 54 1010.9
20260507082727 51 132 0.9 3.5 0.00 0.13 0.00 56 1011.2
20260507082407 51 130 0.9 3.5 0.00 0.13 0.00 54 1010.9
20260507082107 50 121 0.9 3.5 0.00 0.13 0.00 58 1011.0
20260507081807 50 114 1.7 3.5 0.00 0.13 0.00 54 1011.1
20260507081506 49 114 1.7 3.5 0.00 0.13 0.00 59 1011.0
20260507081206 49 116 1.7 3.5 0.00 0.13 0.00 60 1011.0
20260507080907 49 121 0.9 3.5 0.00 0.14 0.00 58 1010.9
20260507080606 49 136 0.9 3.5 0.00 0.14 0.00 59 1010.9
20260507080306 49 144 0.9 1.7 0.00 0.14 0.00 56 1010.8
20260507080008 49 144 0.9 1.7 0.00 0.15 0.00 55 1010.7
20260507075707 49 149 0.9 1.7 0.00 0.15 0.00 53 1010.9
20260507075406 49 155 0.9 3.5 0.00 0.15 0.00 53 1010.9
20260507075127 49 161 0.9 3.5 0.00 0.17 0.00 56 1010.9
20260507074827 49 151 0.9 3.5 0.00 0.17 0.00 54 1010.9
20260507074506 48 131 0.9 3.5 0.00 0.18 0.00 55 1010.9
20260507074207 48 116 1.7 3.5 0.00 0.19 0.00 57 1010.8
20260507073907 47 111 1.7 5.2 0.00 0.20 0.00 58 1010.8
20260507073607 47 108 2.6 5.2 0.00 0.20 0.00 63 1010.7
20260507073306 46 109 2.6 5.2 0.00 0.21 0.00 55 1010.7
20260507073007 47 114 2.6 5.2 0.00 0.22 0.00 52 1010.7
20260507072707 46 117 2.6 5.2 0.00 0.22 0.00 57 1010.8
20260507072428 46 119 2.6 5.2 0.00 0.24 0.00 59 1010.7
20260507072107 46 112 1.7 3.5 0.00 0.25 0.00 57 1010.9
20260507071806 46 110 1.7 3.5 0.00 0.25 0.00 52 1010.8
20260507071527 46 111 1.7 3.5 0.00 0.25 0.00 54 1010.7
20260507071206 47 116 1.7 3.5 0.00 0.25 0.00 56 1010.7
20260507070906 47 117 1.7 3.5 0.00 0.26 0.00 54 1010.6
20260507070607 47 109 1.7 3.5 0.00 0.26 0.00 58 1010.7
20260507070306 47 110 0.9 3.5 0.00 0.27 0.00 53 1010.9
20260507070010 48 109 0.9 3.5 0.00 0.27 0.00 54 1010.7
20260507065707 48 126 0.0 1.7 0.00 0.27 0.00 53 1010.6
20260507065406 49 117 0.0 1.7 0.00 0.27 0.00 51 1010.7
20260507065107 49 99 0.0 1.7 0.00 0.27 0.00 52 1010.8
20260507064806 48 92 0.9 1.7 0.00 0.27 0.00 58 1010.7
20260507064506 48 91 0.9 1.7 0.00 0.27 0.00 57 1010.7
20260507064206 48 92 0.9 1.7 0.00 0.27 0.00 55 1010.7
20260507063906 48 86 0.9 1.7 0.00 0.27 0.00 59 1010.7
20260507063610 48 79 0.9 1.7 0.00 0.27 0.00 58 1010.7
20260507063307 48 72 0.0 1.7 0.00 0.27 0.00 61 1010.7
20260507063027 48 70 0.0 1.7 0.00 0.27 0.00 59 1010.7
20260507062728 47 67 0.0 1.7 0.00 0.27 0.00 63 1010.6
20260507062427 47 0 0.0 1.7 0.00 0.27 0.00 60 1010.9
20260507062106 47 73 0.0 1.7 0.00 0.27 0.00 59 1010.7
20260507061806 46 50 0.0 1.7 0.00 0.27 0.00 60 1010.7
20260507061506 46 16 0.0 1.7 0.00 0.27 0.00 60 1010.7
20260507061206 44 0 0.0 1.7 0.00 0.27 0.00 65 1010.6
20260507060907 43 0 0.0 1.7 0.00 0.28 0.00 65 1010.6
20260507060606 45 0 0.0 1.7 0.00 0.30 0.00 62 1010.7
20260507060306 44 0 0.0 1.7 0.00 0.31 0.00 64 1010.5
20260507060006 43 0 0.0 1.7 0.00 0.32 0.00 64 1010.6
20260507055727 43 0 0.0 1.7 0.00 0.34 0.00 63 1010.6
20260507055406 43 0 0.0 0.0 0.00 0.35 0.00 64 1010.7
20260507055106 43 0 0.0 0.0 0.00 0.35 0.00 61 1010.6
20260507054806 42 0 0.0 0.0 0.00 0.38 0.00 62 1010.6
20260507054507 40 0 0.0 0.0 0.00 0.39 0.00 65 1010.5
20260507054206 38 0 0.0 0.0 0.00 0.40 0.00 67 1010.4
20260507053907 37 0 0.0 1.7 0.00 0.41 0.00 69 1010.6
20260507053606 35 337 0.0 1.7 0.00 0.43 0.00 72 1010.4
20260507053306 35 337 0.0 1.7 0.00 0.44 0.00 73 1010.4
20260507053006 35 337 0.0 1.7 0.00 0.44 0.00 73 1010.2
20260507052727 36 337 0.9 1.7 0.00 0.45 0.00 71 1010.4
20260507052406 35 337 0.0 1.7 0.00 0.45 0.00 73 1010.3
20260507052106 34 337 0.0 1.7 0.00 0.46 0.00 77 1010.3
20260507051806 34 337 0.0 1.7 0.00 0.46 0.00 78 1010.3
20260507051506 34 340 0.0 1.7 0.00 0.47 0.00 79 1010.3
20260507051207 34 344 0.0 1.7 0.00 0.48 0.00 78 1010.1
20260507050927 34 344 0.0 1.7 0.00 0.48 0.00 79 1010.1
20260507050606 34 0 0.0 1.7 0.00 0.48 0.00 78 1010.3
20260507050307 35 352 0.0 1.7 0.00 0.48 0.00 77 1010.2
20260507050007 35 334 0.0 1.7 0.00 0.48 0.00 74 1010.1
20260507045707 35 331 0.0 1.7 0.00 0.48 0.00 74 1010.2
20260507045427 35 331 0.0 1.7 0.00 0.48 0.00 73 1010.2
20260507045106 34 356 0.0 1.7 0.00 0.48 0.00 77 1009.8
20260507044806 34 1 0.0 1.7 0.00 0.50 0.00 79 1010.1
20260507044507 34 7 0.0 1.7 0.00 0.50 0.00 79 1010.1
20260507044206 33 355 0.0 1.7 0.00 0.50 0.00 79 1010.1
20260507043907 33 71 0.0 1.7 0.00 0.50 0.00 81 1010.1
20260507043606 33 83 0.0 1.7 0.00 0.50 0.00 80 1010.0
20260507043306 33 53 0.0 1.7 0.00 0.50 0.00 80 1009.8
20260507043006 33 19 0.0 1.7 0.00 0.50 0.00 80 1009.8
20260507042706 33 2 0.0 1.7 0.00 0.50 0.00 81 1009.8
20260507042407 33 358 0.0 1.7 0.00 0.50 0.00 81 1009.6
20260507042107 34 348 0.9 3.5 0.00 0.50 0.00 80 1009.6
20260507041827 34 348 0.9 3.5 0.00 0.50 0.00 79 1009.6
20260507041507 34 347 1.7 3.5 0.00 0.50 0.00 79 1009.6
20260507041206 34 349 0.9 3.5 0.00 0.50 0.00 77 1009.6
20260507040906 34 344 0.9 1.7 0.00 0.50 0.00 77 1009.5
20260507040606 35 344 0.9 1.7 0.00 0.50 0.00 76 1009.6
20260507040307 35 339 0.9 1.7 0.00 0.50 0.00 76 1009.6
20260507040006 35 339 0.9 1.7 0.00 0.50 0.00 76 1009.8
20260507035707 36 339 0.9 1.7 0.00 0.50 0.00 74 1009.5
20260507035406 36 337 1.7 3.5 0.00 0.50 0.00 72 1009.6
20260507035106 36 337 1.7 3.5 0.00 0.50 0.00 73 1009.7
20260507034827 36 337 1.7 3.5 0.00 0.50 0.00 72 1009.6
20260507034506 36 334 1.7 3.5 0.00 0.50 0.00 72 1009.6
20260507034206 36 338 1.7 3.5 0.00 0.50 0.00 73 1009.6
20260507033906 35 338 1.7 3.5 0.00 0.50 0.00 72 1009.5
20260507033606 35 340 1.7 3.5 0.00 0.50 0.00 76 1009.7
20260507033328 36 339 1.7 3.5 0.00 0.50 0.00 75 1009.6
20260507033027 36 337 1.7 3.5 0.00 0.50 0.00 74 1009.8
20260507032706 35 337 1.7 3.5 0.00 0.50 0.00 74 1009.7
20260507032406 35 342 0.9 3.5 0.00 0.50 0.00 75 1009.8
20260507032107 35 346 0.9 3.5 0.00 0.50 0.00 76 1009.7
20260507031827 35 350 0.9 3.5 0.00 0.50 0.00 76 1009.7
20260507031527 34 347 0.9 3.5 0.00 0.50 0.00 78 1009.7
20260507031206 34 347 0.9 3.5 0.00 0.50 0.00 78 1009.7
20260507030906 34 348 0.9 3.5 0.00 0.50 0.00 79 1009.7
20260507030606 33 3 0.0 3.5 0.00 0.50 0.00 81 1009.6
20260507030327 34 358 0.0 1.7 0.00 0.50 0.00 81 1009.6
20260507030027 34 353 0.0 1.7 0.00 0.50 0.00 81 1009.6
20260507025706 34 346 0.9 1.7 0.00 0.50 0.00 81 1009.5
20260507025407 34 347 0.9 1.7 0.00 0.50 0.00 81 1009.8
20260507025106 35 342 0.9 1.7 0.00 0.50 0.00 79 1009.7
20260507024806 35 346 0.0 1.7 0.00 0.50 0.00 79 1009.6
20260507024506 35 344 0.0 1.7 0.00 0.50 0.00 79 1009.6
20260507024206 35 342 0.0 1.7 0.00 0.50 0.00 78 1009.7
20260507023936 35 339 0.9 3.5 0.00 0.50 0.00 78 1009.5
20260507023606 36 339 0.9 3.5 0.00 0.50 0.00 77 1009.6
20260507023306 36 338 0.9 3.5 0.00 0.50 0.00 76 1009.6
20260507023027 35 337 0.9 3.5 0.00 0.50 0.00 78 1009.6
20260507022727 36 339 0.9 1.7 0.00 0.50 0.00 77 1009.6
20260507022406 35 341 0.9 1.7 0.00 0.50 0.00 76 1009.6
20260507022106 35 341 0.9 3.5 0.00 0.50 0.00 79 1009.4
20260507021806 36 338 0.9 3.5 0.00 0.50 0.00 78 1009.5
20260507021506 36 337 1.7 3.5 0.00 0.50 0.00 75 1009.6
20260507021206 36 339 1.7 3.5 0.00 0.50 0.00 76 1009.5
20260507020906 35 340 0.9 3.5 0.00 0.50 0.00 78 1009.7
20260507020606 35 344 0.9 1.7 0.00 0.50 0.00 77 1009.5
20260507020306 36 349 0.0 1.7 0.00 0.50 0.00 78 1009.6
20260507020027 36 348 0.0 1.7 0.00 0.50 0.00 77 1009.6
20260507015706 35 345 0.0 1.7 0.00 0.50 0.00 75 1009.6
20260507015406 35 341 0.9 1.7 0.00 0.50 0.00 78 1009.5
20260507015106 35 338 0.9 1.7 0.00 0.50 0.00 78 1009.6
20260507014806 35 348 0.9 1.7 0.00 0.50 0.00 78 1009.6
20260507014506 35 20 0.0 1.7 0.00 0.50 0.00 78 1009.6
20260507014207 35 59 0.0 1.7 0.00 0.50 0.00 78 1009.5
20260507013927 35 55 0.0 1.7 0.00 0.50 0.00 78 1009.5
20260507013606 35 46 0.0 1.7 0.00 0.50 0.00 78 1009.6
20260507013327 35 15 0.0 1.7 0.00 0.50 0.00 78 1009.6
20260507013006 35 350 0.9 1.7 0.00 0.50 0.00 77 1009.5
20260507012706 36 339 0.9 1.7 0.00 0.50 0.00 77 1009.7
20260507012406 36 337 0.9 3.5 0.00 0.50 0.00 76 1009.5
20260507012106 36 337 0.9 3.5 0.00 0.50 0.00 75 1009.5
20260507011827 37 339 0.9 3.5 0.00 0.50 0.00 73 1009.5
20260507011506 36 341 0.9 3.5 0.00 0.50 0.00 73 1009.4
20260507010606 37 339 1.7 3.5 0.00 0.50 0.00 73 1009.5
20260507010306 37 332 1.7 3.5 0.00 0.50 0.00 74 1009.6
20260507010006 37 329 1.7 3.5 0.00 0.50 0.00 74 1009.7
20260507005705 36 320 0.9 1.7 0.00 0.50 0.00 76 1009.5
20260507005406 36 319 0.0 1.7 0.00 0.50 0.00 78 1009.4
20260507005106 34 0 0.0 0.0 0.00 0.50 0.00 81 1009.4
20260507004806 34 0 0.0 1.7 0.00 0.50 0.00 83 1009.5
20260507004506 34 0 0.0 1.7 0.00 0.50 0.00 83 1009.7
20260507004206 34 0 0.0 1.7 0.00 0.50 0.00 82 1009.6
20260507003905 35 0 0.0 1.7 0.00 0.50 0.00 83 1009.5
20260507003606 35 22 0.0 1.7 0.00 0.50 0.00 83 1009.6
20260507003306 35 27 0.0 1.7 0.00 0.50 0.00 82 1009.6
20260507003006 35 25 0.0 1.7 0.00 0.50 0.00 82 1009.6
20260507002706 35 21 0.0 1.7 0.00 0.50 0.00 82 1009.6
20260507002406 35 360 0.0 1.7 0.00 0.50 0.00 82 1009.7
20260507002106 35 360 0.0 1.7 0.00 0.50 0.00 81 1009.6
20260507001827 35 360 0.0 1.7 0.00 0.50 0.00 81 1009.5
20260507001506 35 0 0.0 1.7 0.00 0.50 0.00 80 1009.6
20260507001206 35 0 0.0 1.7 0.00 0.50 0.00 80 1009.4
20260507000905 35 0 0.0 1.7 0.00 0.50 0.00 79 1009.7
20260507000606 35 360 0.0 1.7 0.00 0.50 0.00 80 1009.5
20260507000306 35 360 0.0 1.7 0.00 0.50 0.00 80 1009.5
20260507000006 35 359 0.0 1.7 0.00 0.50 0.00 80 1009.7
20260506235706 35 358 0.0 1.7 0.00 0.50 0.00 81 1009.6
20260506235406 35 358 0.0 1.7 0.00 0.50 0.00 81 1009.6
20260506235106 35 0 0.0 1.7 0.00 0.50 0.00 80 1009.7
20260506234806 35 0 0.0 1.7 0.00 0.50 0.00 80 1009.6
20260506234506 36 0 0.0 1.7 0.00 0.50 0.00 79 1009.4
20260506234206 36 354 0.0 1.7 0.00 0.50 0.00 78 1009.6
20260506233906 36 346 0.0 1.7 0.00 0.50 0.00 76 1009.6
20260506233606 36 346 0.0 1.7 0.00 0.50 0.00 76 1009.5
20260506233306 36 360 0.0 1.7 0.00 0.50 0.00 77 1009.4
20260506233006 36 0 0.0 1.7 0.00 0.50 0.00 77 1009.5